CZ-4 DEB, 35326

Orbit data source: Space-Track

CZ-4 DEB, 35326 is space debris in SSO originally from a launch on Thu, 14 Oct 1999 UTC launched from the Taiyaun Space Center, China (TSC). Debris objects in space refer to the collection of defunct objects orbiting the Earth. Examples of debris include non-operational satellites, rocket bodies, and fragments generated from explosions, collisions, or faulty payload assembly.

Loading next visibility...
Identifier
35326, 1999-057SE
Orbit
SSO
Country
Flag of CNCN / PRC
Related business
Manufacturer
Unknown
Mission
Spacecraft
Bus & Motor
Unknown
Mass
Unknown
Launch date (UTC)
1999-10-14 (26 years ago)
Launch vehicle
Unknown
Launch site
Taiyaun Space Center, China (TSC)
Object type
Payload
Rocket body
Debris
Shape & HBR
Unknown shape, 0.1 m
Radar Cross Section
Small (<0.1 m²)

Expand to show TLE details & history
Last TLE update: 2 days ago

TLE from 2 days ago
0 CZ-4 DEB
1 35326U 99057SE  25303.45046457  .00000364  00000-0  21766-3 0  9995
2 35326  98.4615 178.5623 0230195 242.8943 114.8575 14.00267333621614
Epoch: 2025-10-30T10:48Z
TLE epoch observation values (Epoch: 2025-10-30T10:48:40.138Z)
Latitude
-0.00009°
Longitude
-22.614°
Altitude
969.263 km
Speed
7.33 km/s
True Right ascension
11h 54m 14s
True Declination
0° 00' 00"
Sunlit
Object was in daylight at epoch
Visualization orbit readout
Latitude
Unknown
Longitude
Unknown
Altitude
Unknown
Speed
Unknown
Apparent Right ascension
Unknown
Apparent Declination
Unknown
Sunlit
N/A
Visualization observer readout
Local Sidereal Time
14:27:26
Azimuth
Unknown
Elevation
Unknown
Doppler factor
Unknown
Orbital elements
Apogee altitude
1,057.351 km
Perigee altitude
722.731 km
Semi-major axis
7,268.178 km
Eccentricity
0.02302
Inclination
98.4615°
RAAN
178.5623°
Arg. of periapsis
242.8943°
True anomaly
117.22167°
Mean anomaly
114.8575°
Eccentric anomaly
116.04251°
Mean motion
3.50272 °/min
Orbital period
102.78 mins
BSTAR
0.00021766
Loading maneuver chart data...
Computing Atmospheric mass density...
Loading historical data...
Loading historical data...
Loading historical data...
Loading historical data...
Loading historical data...
Loading historical data...
Loading historical data...

Documentation

Showing up to 5 results
|